TimeMDT,TemperatureF,Dew PointF,Humidity,Sea Level PressureIn,VisibilityMPH,Wind Direction,Wind SpeedMPH,Gust SpeedMPH,PrecipitationIn,Events,Conditions,WindDirDegrees,DateUTC
12:53 AM,44.1,39.0,82,30.03,10.0,NW,19.6,29.9,N/A,,Overcast,310,2013-05-21 06:53:00
1:42 AM,44.6,39.2,81,30.05,10.0,NW,21.9,-,N/A,,Overcast,320,2013-05-21 07:42:00
1:53 AM,44.1,39.0,82,30.03,10.0,NW,18.4,24.2,N/A,,Overcast,320,2013-05-21 07:53:00
2:06 AM,44.6,39.2,81,30.06,10.0,NW,18.4,25.3,N/A,,Overcast,320,2013-05-21 08:06:00
2:53 AM,44.1,39.0,82,30.03,10.0,NW,17.3,-,N/A,,Overcast,310,2013-05-21 08:53:00
3:30 AM,44.6,39.2,81,30.05,10.0,NW,13.8,-,N/A,,Overcast,310,2013-05-21 09:30:00
3:53 AM,44.1,39.0,82,30.01,10.0,NW,16.1,-,N/A,,Overcast,320,2013-05-21 09:53:00
4:07 AM,44.6,39.2,81,30.05,10.0,NW,12.7,-,N/A,,Overcast,310,2013-05-21 10:07:00
4:53 AM,44.1,39.0,82,30.01,10.0,WNW,17.3,-,N/A,,Overcast,300,2013-05-21 10:53:00
5:10 AM,44.6,39.2,81,30.04,10.0,WNW,18.4,-,N/A,,Overcast,300,2013-05-21 11:10:00
5:53 AM,44.1,37.9,79,30.01,10.0,WNW,18.4,-,N/A,,Mostly Cloudy,290,2013-05-21 11:53:00
6:53 AM,46.0,37.9,73,29.99,10.0,WNW,19.6,-,N/A,,Clear,300,2013-05-21 12:53:00
7:53 AM,50.0,39.0,66,29.98,10.0,WNW,19.6,26.5,N/A,,Clear,300,2013-05-21 13:53:00
8:53 AM,51.1,37.9,61,29.98,10.0,NW,19.6,31.1,N/A,,Scattered Clouds,310,2013-05-21 14:53:00
9:53 AM,54.0,36.0,51,29.97,10.0,NW,24.2,31.1,N/A,,Mostly Cloudy,320,2013-05-21 15:53:00
10:53 AM,57.0,32.0,39,29.94,10.0,NW,26.5,35.7,N/A,,Partly Cloudy,320,2013-05-21 16:53:00
11:53 AM,60.1,30.0,32,29.91,10.0,NW,25.3,36.8,N/A,,Partly Cloudy,310,2013-05-21 17:53:00
12:53 PM,62.1,32.0,32,29.89,10.0,NW,20.7,31.1,N/A,,Scattered Clouds,320,2013-05-21 18:53:00
1:53 PM,63.0,32.0,31,29.87,10.0,NW,21.9,29.9,N/A,,Mostly Cloudy,320,2013-05-21 19:53:00
2:53 PM,62.1,30.0,30,29.87,10.0,NNW,18.4,25.3,N/A,,Mostly Cloudy,330,2013-05-21 20:53:00
3:53 PM,63.0,30.9,30,29.86,10.0,NNW,19.6,28.8,N/A,,Clear,340,2013-05-21 21:53:00
4:53 PM,63.0,34.0,34,29.85,10.0,North,19.6,-,N/A,,Clear,360,2013-05-21 22:53:00
5:53 PM,60.1,34.0,38,29.85,10.0,NNE,19.6,-,N/A,,Clear,20,2013-05-21 23:53:00
6:53 PM,57.0,32.0,39,29.86,10.0,NNE,19.6,28.8,N/A,,Clear,20,2013-05-22 00:53:00
7:53 PM,53.1,35.1,50,29.88,10.0,NE,15.0,-,N/A,,Clear,40,2013-05-22 01:53:00
8:53 PM,48.9,36.0,61,29.92,10.0,NNE,9.2,-,N/A,,Clear,30,2013-05-22 02:53:00
9:53 PM,46.0,37.9,73,29.95,10.0,NE,4.6,-,N/A,,Clear,40,2013-05-22 03:53:00
10:53 PM,43.0,39.0,86,29.96,10.0,NE,3.5,-,N/A,,Clear,50,2013-05-22 04:53:00
11:53 PM,42.1,37.9,85,29.95,10.0,Calm,Calm,-,N/A,,Clear,0,2013-05-22 05:53:00